Location: Butler
(32.5575°N, 84.2380°W)
Time: 20:25:49
(UTC+00:00)

N. Korean satellite - Pass Details

Date: 10 December 2021
Orbit: 447 x 490 km, 97.3° (Epoch: 27 January)

Event Time Altitude Azimuth Distance (km) Brightness Sun altitude
Exits shadow 11:28:17 10° 339° (NNW) 1,594 8.8 -12.4°
Reaches altitude 10° 11:28:20 10° 338° (NNW) 1,578 8.8 -12.4°
Maximum altitude 11:30:57 21° 287° (WNW) 1,053 7.6 -11.9°
Drops below altitude 10° 11:33:35 10° 236° (SW) 1,578 8.8 -11.4°
Sets 11:35:56 0° 220° (SW) 2,453 9.9 -10.9°
